Home   Weather   Skopje   Past weeks
Flag for North Macedonia

Past Weather in Skopje, North Macedonia — Yesterday and Last 2 Weeks

Now
54 °F

Sunny.


Feels Like: 51 °F
Forecast: 64 / 44 °F
Wind: 9 mph from Northeast

Location: Skopje-Petrovec

Current Time: Mar 19, 2019 at 9:15:24 am

Latest Report: Mar 19, 2019 at 8:30 am


Visibility: 10 mi

Pressure: 30.09 "Hg

Humidity: 54%

Dew Point: 37 °F

Location of SkopjeLocation

Past Weather in Skopje — Graph

°F

Skopje Temperature Yesterday

Maximum temperature yesterday: 77 °F (at 3:00 pm)
Minimum temperature yesterday: 34 °F (at 6:00 am)
Average temperature yesterday: 58 °F

High & Low Weather Summary for the Past Weeks

 TemperatureHumidityPressure
High77 °F (Mar 17, 4:00 pm)93% (Mar 7, 5:00 am)30.24 "Hg (Mar 7, 5:00 am)
Low30 °F (Mar 5, 3:00 am)19% (Mar 17, 4:00 pm)29.74 "Hg (Mar 11, 3:30 pm)
Average49 °F57%30.00 "Hg
* Reported Mar 4 8:00 am — Mar 19 8:00 am, Skopje. Weather by CustomWeather, © 2019

Note: Actual official high and low records may vary slightly from our data, if they occured in-between our weather recording intervals... More about our weather records

Advertising

Skopje Weather History for the Previous 24 Hours

Scroll right to see more
 ConditionsComfort  
Time TempWeatherWind HumidityBarometerVisibility
8:00 am
Tue, Mar 19
54 °FSunny.3 mph58%30.09 "Hg10 mi
7:30 am50 °FSunny.5 mph67%30.09 "Hg10 mi
7:00 am50 °FPassing clouds.6 mph58%30.07 "HgN/A
6:30 am48 °FSunny.6 mph62%30.07 "Hg10 mi
6:00 am46 °FSunny.3 mph66%30.07 "Hg10 mi
5:30 am48 °FPassing clouds.10 mph62%30.04 "HgN/A
5:00 am48 °FPassing clouds.6 mph66%30.04 "HgN/A
4:30 am50 °FPassing clouds.10 mph62%30.04 "HgN/A
4:00 am43 °FPassing clouds.5 mph81%30.04 "HgN/A
3:30 am43 °FPassing clouds.3 mph81%30.04 "HgN/A
3:00 am43 °FPassing clouds.1 mph81%30.01 "HgN/A
2:30 am45 °FPassing clouds.2 mph76%30.01 "HgN/A
2:00 am46 °FPassing clouds.2 mph71%30.01 "HgN/A
1:30 am45 °FClear.No wind76%30.01 "Hg10 mi
1:00 am46 °FClear.No wind71%30.01 "Hg10 mi
12:30 am52 °FPassing clouds.6 mph62%30.01 "HgN/A
12:00 am54 °FPassing clouds.7 mph58%30.01 "HgN/A
11:30 pm
Mon, Mar 18
50 °FClear.3 mph67%29.98 "Hg10 mi
10:30 pm52 °FClear.1 mph67%29.98 "Hg10 mi
10:00 pm57 °FClear.7 mph55%29.95 "Hg10 mi
9:30 pm57 °FPassing clouds.7 mph51%29.95 "HgN/A
9:00 pm54 °FPassing clouds.5 mph54%29.95 "HgN/A
8:30 pm61 °FClear.2 mph42%29.92 "Hg10 mi
8:00 pm63 °FClear.2 mph39%29.92 "Hg10 mi
7:30 pm63 °FPassing clouds.3 mph37%29.89 "HgN/A
7:00 pm63 °FPassing clouds.5 mph37%29.89 "HgN/A
6:30 pm66 °FPassing clouds.8 mph32%29.86 "HgN/A
6:00 pm68 °FPassing clouds.8 mph33%29.86 "HgN/A
5:30 pm70 °FScattered clouds.10 mph31%29.86 "HgN/A
5:00 pm72 °FScattered clouds.9 mph29%29.83 "HgN/A
4:30 pm73 °FScattered clouds.9 mph23%29.83 "HgN/A
4:00 pm73 °FScattered clouds.8 mph23%29.83 "HgN/A
3:30 pm75 °FPassing clouds.9 mph22%29.83 "HgN/A
3:00 pm77 °FSunny.8 mph19%29.83 "Hg10 mi
2:30 pm75 °FPassing clouds.9 mph21%29.83 "HgN/A
2:00 pm75 °FPassing clouds.6 mph22%29.86 "HgN/A
1:30 pm75 °FPassing clouds.7 mph24%29.86 "HgN/A
1:00 pm73 °FSunny.2 mph27%29.89 "Hg10 mi
12:30 pm70 °FSunny.5 mph31%29.89 "Hg10 mi
12:00 pm70 °FSunny.No wind33%29.92 "Hg10 mi
11:30 am68 °FSunny.2 mph33%29.95 "Hg10 mi
11:00 am64 °FSunny.No wind37%29.95 "Hg10 mi
10:30 am63 °FSunny.No wind39%29.95 "Hg10 mi
10:00 am59 °FSunny.2 mph45%29.98 "Hg10 mi
9:30 am57 °FSunny.No wind48%29.98 "Hg10 mi
9:00 am54 °FSunny.No wind51%30.01 "Hg10 mi
Weather by CustomWeather, © 2019

See weather overview